Regional Weather Roundup
Issued by NWS New Orleans/Baton Rouge, LA

Home | Current Version | Previous Version | Text Only | Print | Product List | Glossary On
Versions: 1 2 3 4 5 6 7 8 9 10 11 12 13 14 15 16 17 18 19 20 21 22 23 24 25 26 27 28 29 30 31 32 33 34 35 36 37 38 39 40 41 42 43 44 45 46 47 48 49 50
079
ASUS44 KLIX 301910
RWRLIX
NEW ORLEANS REGIONAL WEATHER ROUNDUP
NATIONAL WEATHER SERVICE NEW ORLEANS LA
200 PM CDT TUE SEP 30 2014

NOTE: "FAIR" INDICATES FEW OR NO CLOUDS BELOW 12,000 FEET WITH NO
      SIGNIFICANT WEATHER AND/OR OBSTRUCTIONS TO VISIBILITY.
      SKY/WX - SKY CONDITION AND SIGNIFICANT WEATHER.
      TMP - AIR TEMPERATURE.     DP    - DEWPOINT TEMPERATURE.
      RH  - RELATIVE HUMIDITY.   PRES  - PRESSURE.
      HI  - HEAT INDEX.          WCI   - WIND CHILL INDEX.

*  THESE STATIONS ARE NOT NWS OR FAA STATIONS AND ARE NOT UNDER
   NWS QUALITY CONTROL.

LAZ038-040-048-061>063-065>067-069-302000-
SOUTHEAST LOUISIANA

CITY           SKY/WX    TMP DP  RH WIND       PRES   REMARKS
N.O. AUDUBON     N/A     89  72  57 MISG        N/A  HX  96
N.O. INTL ARPT MOSUNNY   86  70  58 NE12      29.86F
N.O. LAKEFRONT MOSUNNY   85  70  60 E8        29.87F
N.O. DOWNTOWN*   N/A     86  66  51 NE6       29.87F
SLIDELL        MOSUNNY   85  69  58 CALM      29.86F
BATON ROUGE    PTSUNNY   89  68  49 VRB3      29.86F
BOOTHVILLE     MOSUNNY   81  75  82 NE10      29.88F
BELLE CHASSE   PTSUNNY   87  71  58 NE10      29.86F
BOGALUSA*      MOCLDY    86  69  56 NE6       29.89F
GALLIANO*      NOT AVBL
NEW ROADS*     MOCLDY    87  70  55 E6        29.86F
GONZALES*        N/A     85  73  66 E5        29.86F
HAMMOND*       MOSUNNY   91  66  43 NE7       29.88F
HOUMA*         PTSUNNY  N/A N/A N/A SE6       29.86F
PORT FOURCHON* CLEAR     84  73  70 E8        29.90F

$$

MSZ070-080>082-302000-
SOUTHERN MISSISSIPPI

CITY           SKY/WX    TMP DP  RH WIND       PRES   REMARKS
MCCOMB         PTSUNNY   87  65  47 N5        29.88F
GULFPORT       MOSUNNY   83  73  72 SE12      29.87F
BILOXI         CLOUDY    83  71  67 VRB7      29.88F
PASCAGOULA     PTSUNNY   81  70  69 N7        29.89F
STENNIS ARPT*  MOSUNNY   84  70  61 S7        29.88F

$$

COASTAL OBSERVATIONS
LAKE AND NEARSHORE STATIONS

STATION/POSITION TIME  TEMP    WIND        PRES    WAVE
                       AIR SEA DIR/SP/G            HT/PER
                 (UTC) (F)     (DEG/KT/KT) (MB)    (FT/S)
PASCAGOULA       1900   82      60/  8/ 11 1011.5
WAVELAND YACHT   1900   78     150/  9/ 11 1011.2
GRAND ISLE       1900   82 81   80/  4/  6 1012.0
SOUTHWEST PASS   1900   93 86   90/  5/  6 1011.8
NEW CANAL        1900   80 77   40/  9/ 10 1011.9
SHELL BEACH      1900   80 76   50/ 11/ 12 1011.6

OFFSHORE STATIONS

STATION/POSITION TIME  TEMP    WIND        PRES    WAVE
                       AIR SEA DIR/SP/G            HT/PER
                 (UTC) (F)     (DEG/KT/KT) (MB)    (FT/S)
64 S DAUPHIN ISL 1808   79 83   60/ 12/ 14 1011.8    2/ 5

$$




USA.gov is the U.S. government's official web portal to all federal, state and local government web resources and services.